SCP
0 -0 0 0 0 0 0 0 0 0 0 0 0 0 0 0 0 0 0 0 0 0 0 0 0 0 0 0 0 0 0 0 0 0 0 0 0 0 0 0 0 0 0 0
-0 0 0 0 0 0 0 0 0 0 0 0 0 0 0 0 0 0 0 0 0 0 0 0 0 0 0 0 0 0 0 0 0 0 0 0 0 0 0 0 0 0 0 0
-0 0 0 0 0 0 0 0 0 0 0 0 0 0 0 0 0 0 0 0 0 0 0 0 0 0 0 0 0 0 0 0 0 0 0 0 0 0 0 0 0 0 0 0
0 0 -0 0 0 0 0 0 0 0 0 0 0 0 0 0 0 0 0 0 0 0 0 0 0 0 0 0 0 0 0 0 0 0 0 0 0 0 0 0 0 0 0 0
0 0 0 0 0 0 0 0 0 0 0 0 0 0 0 0 0 0 0 0 0 0 0 0 0 0 0 0 0 0 0 0 0 0 0 0 0 0 0 0 0 0 0 0
0 0 0 0 0 0 0 0 0 0 0 0 0 0 0 0 0 0 0 0 0 0 0 0 0 0 0 0 0 0 0 0 0 0 0 0 0 0 0 0 0 0 0 0
0 0 0 0 0 0 0 0 0 0 0 0 0 0 0 0 0 0 0 0 0 0 0 0 0 0 0 0 0 0 0 0 0 0 0 0 0 0 0 0 0 0 0 0
0 0 0 0 0 0 0 0 0 0 0 0 0 0 0 0 0 0 0 0 0 0 0 0 0 0 0 0 0 0 0 0 0 0 0 0 0 0 0 0 0 0 0 0
0 0 0 0 0 0 0 0 0 0 0 0 0 0 0 0 0 0 0 0 0 0 0 0 0 0 0 0 0 0 0 0 0 0 0 0 0 0 0 0 0 0 0 0
0 0 0 0 0 0 0 0 0 0 0 0 0 0 0 0 0 0 0 0 0 0 0 0 0 0 0 0 0 0 0 0 0 0 0 0 0 0 0 0 0 0 0 0
0 0 0 0 0 0 0 0 0 0 0 0 0 0 0 0 0 0 0 0 0 0 0 0 0 0 0 0 0 0 0 0 0 0 0 0 0 0 0 0 0 0 0 0
0 0 0 0 0 0 0 0 0 0 0 0 0 0 0 0 0 0 0 0 0 0 0 0 0 0 0 0 0 0 0 0 0 0 0 0 0 0 0 0 0 0 0 0
0 0 0 0 0 0 0 0 0 0 0 0 0 0 0 0 0 0 0 0 0 0 0 0 0 0 0 0 0 0 0 0 0 0 0 0 0 0 0 0 0 0 0 0
0 0 0 0 0 0 0 0 0 0 0 0 0 0 0 0 0 0 0 0 0 0 0 0 0 0 0 0 0 0 0 0 0 0 0 0 0 0 0 0 0 0 0 0
0 0 0 0 0 0 0 0 0 0 0 0 0 0 0 0 0 0 0 0 0 0 0 0 0 0 0 0 0 0 0 0 0 0 0 0 0 0 0 0 0 0 0 0
0 0 0 0 0 0 0 0 0 0 0 0 0 0 0 0 0 0 0 0 0 0 0 0 0 0 0 0 0 0 0 0 0 0 0 0 0 0 0 0 0 0 0 0
0 0 0 -0 0 0 -0 0 0 0 0 0 0 0 0 0 0 0 0 -0 0 0 0 0 0 0 0 0 0 0 0 0 0 0 0 0 0 0 0 0 0 0 0 0
0 0 0 -0 0 0 0 0 0 0 0 0 0 0 0 0 0 0 0 -0 -0 0 0 0 0 0 0 0 0 0 0 0 0 0 0 0 0 0 0 0 0 0 0 0
0 0 0 0 0 0 -0 0 0 0 0 0 -0 0 0 0 0 0 0 0 -0 -0 0 0 0 0 0 0 0 0 0 0 0 0 0 0 0 0 0 0 0 0 0 0
0 0 0 0 0 -0 0 0 0 -0 0 0 0 0 0 0 0 0 0 0 0 0 0 0 0 0 0 0 0 0 0 0 0 0 0 0 0 0 0 0 0 0 0 0
0 0 0 0 0 0 0 0 0 0 0 0 0 0 0 0 0 0 0 0 0 0 0 0 0 0 0 0 0 0 0 0 0 0 0 0 0 0 0 0 0 0 0 0
0 0 0 0 0 0 0 0 0 0 0 0 0 0 0 0 0 0 0 0 0 0 0 0 0 0 0 0 0 0 0 0 0 0 0 0 0 0 0 0 0 0 0 0
0 0 0 0 0 0 0 0 0 0 0 0 0 0 0 0 0 0 0 0 0 0 0 0 0 0 0 0 0 0 0 0 0 0 0 0 0 0 0 0 0 0 0 0
0 0 0 0 0 0 0 0 0 0 0 0 0 0 0 0 0 0 0 0 0 0 0 0 0 0 0 0 0 0 0 0 0 0 0 0 0 0 0 0 0 0 0 0
0 0 0 0 0 0 0 0 0 0 0 0 0 0 0 0 0 0 0 0 0 0 0 0 0 0 0 0 0 0 0 0 0 0 0 0 0 0 0 0 0 0 0 0
0 0 0 0 0 0 0 0 -0 0 0 0 0 0 0 0 0 0 0 0 0 0 0 0 0 0 0 0 0 0 0 0 0 0 0 0 0 0 0 0 0 0 0 0
Wind_Speed_500mb
8 10 1 7 9 5 5 5 6 4 7 9 13 12 11 29 25 28 26 23 18 11 10 12 14 21 25 19 19 22 26 31 36 39 42 43 43 39 39 38 40 41 44 46
11 0 4 8 5 3 4 3 6 1 5 10 3 15 10 20 23 36 32 27 22 13 11 11 13 20 19 17 18 19 24 30 35 38 40 45 37 40 41 41 42 43 42 37
9 3 6 4 3 3 2 5 3 4 2 3 11 8 3 3 7 21 27 24 22 14 10 9 12 16 13 14 17 18 24 29 34 35 37 35 32 37 40 43 46 48 38 38
5 1 4 3 3 6 4 1 3 3 7 5 6 9 4 5 10 12 24 29 24 15 11 8 12 12 9 13 15 17 22 28 31 33 36 34 39 42 42 44 46 46 37 38
2 4 3 3 2 3 3 3 4 3 5 6 3 5 9 2 11 17 34 33 26 16 13 9 10 8 8 10 11 16 21 27 27 30 34 28 31 35 38 40 43 45 42 38
3 2 3 4 5 5 7 6 10 7 5 4 0 6 9 9 11 4 22 38 27 19 16 11 10 7 6 9 12 16 20 24 25 27 30 27 28 33 40 42 45 47 43 44
2 1 1 2 6 4 8 9 7 7 8 8 3 3 16 8 11 9 28 41 29 23 18 13 11 9 7 8 10 14 18 21 22 24 25 26 24 30 36 40 44 48 45 45
7 7 5 3 2 7 4 8 8 6 4 10 0 10 7 1 6 4 19 31 26 25 21 17 12 10 8 10 8 12 16 19 20 22 23 23 24 25 30 35 39 44 40 39
8 4 1 5 3 2 6 3 6 11 3 4 6 13 4 3 6 12 23 28 30 27 23 17 14 13 11 10 8 11 14 16 18 19 20 21 23 22 27 30 33 38 37 35
5 0 1 3 5 10 2 9 5 6 1 8 10 11 10 11 18 15 23 37 35 29 27 23 19 16 14 11 8 9 11 13 14 16 19 21 22 21 24 28 32 34 36 32
7 6 0 1 9 14 3 2 11 9 5 8 4 13 13 15 17 25 45 44 41 36 31 25 21 19 15 13 10 8 9 11 13 15 16 19 21 19 23 26 29 30 33 33
4 8 6 4 3 1 3 7 10 9 7 3 6 13 6 11 11 29 39 41 39 36 32 27 24 22 18 17 11 9 8 10 11 12 14 17 19 19 21 24 26 29 30 32
10 1 4 4 3 6 7 8 8 11 7 13 10 12 4 8 11 26 34 39 39 39 39 34 32 28 22 20 15 11 9 9 9 9 12 16 19 20 22 26 27 28 29 29
10 6 11 12 9 8 7 9 10 10 8 10 14 16 12 16 17 27 39 42 41 43 43 38 35 31 26 24 20 14 12 10 10 9 10 14 18 21 23 27 28 29 30 30
7 8 7 11 13 9 10 10 19 20 13 15 9 20 13 16 23 51 53 47 48 49 50 48 41 35 30 28 23 20 17 13 11 11 12 14 17 21 23 26 27 28 29 30
3 5 6 9 1 11 12 19 23 22 8 24 6 27 19 20 22 31 53 58 60 59 56 51 44 38 36 31 28 23 20 16 13 13 12 14 16 19 21 24 27 27 28 30
8 9 6 9 7 12 15 18 24 12 11 19 20 25 12 10 21 39 53 67 68 64 58 55 50 42 37 34 30 24 21 19 16 15 14 13 15 18 20 22 24 25 26 29
12 8 4 6 7 5 13 4 10 23 15 32 15 13 17 14 19 24 42 57 62 61 59 56 49 44 41 37 35 28 25 22 19 16 14 14 15 17 17 20 22 24 26 28
6 9 3 5 6 15 9 7 13 15 17 38 43 21 25 16 6 32 41 49 45 53 53 51 45 42 42 40 36 33 30 26 22 17 16 16 16 16 16 19 21 23 26 29
9 11 8 4 7 11 11 3 12 9 12 7 45 20 27 27 3 11 21 50 48 47 50 51 48 45 47 43 42 39 34 31 24 20 18 18 18 17 17 18 22 25 28 31
5 5 10 5 6 17 14 12 16 3 13 6 29 34 50 15 27 6 12 38 45 48 54 54 52 50 45 45 44 42 39 32 24 24 22 22 21 19 19 19 22 24 26 30
16 15 8 6 3 17 21 15 13 9 9 7 12 30 48 50 23 20 14 29 48 53 58 60 56 51 48 49 47 44 43 29 31 28 26 25 24 22 21 20 21 23 25 26
7 14 11 19 14 5 40 26 28 24 19 14 15 16 27 35 40 29 23 30 44 50 57 59 56 50 51 52 48 47 36 39 35 34 30 28 27 25 25 24 23 24 26 26
9 10 6 3 11 27 49 53 62 62 45 35 22 20 25 32 34 38 34 34 43 50 57 58 57 55 54 53 51 45 42 42 40 37 34 32 30 28 27 29 28 27 27 29
6 18 11 11 24 50 59 40 31 39 52 64 57 40 32 32 36 39 42 41 43 47 53 59 60 56 52 50 50 47 47 45 42 40 38 36 34 32 31 31 30 31 29 32
17 12 9 11 21 10 28 23 42 40 50 43 45 62 52 40 38 39 44 43 44 48 51 57 61 58 51 51 50 50 50 48 44 43 40 39 38 36 34 33 31 32 33 31
Wind_Direction_500mb
28 64 262 203 172 152 130 187 240 222 167 156 217 270 222 201 200 199 200 206 218 248 293 305 323 336 337 339 341 346 352 354 352 354 356 358 1 1 0 3 358 350 347 349
25 348 182 122 117 152 169 233 265 339 135 176 175 256 255 189 214 208 206 209 218 239 281 295 317 333 338 346 345 347 352 350 353 357 356 355 359 1 7 6 2 356 354 359
151 166 147 131 79 84 163 203 239 247 36 209 330 294 297 216 194 200 217 221 219 238 271 281 310 326 337 344 347 352 353 350 354 355 354 356 1 6 7 7 5 2 2 6
118 107 168 129 111 121 315 92 95 97 50 277 26 288 288 248 233 215 209 204 217 231 253 272 303 322 335 346 349 351 350 351 354 353 355 360 4 5 5 2 3 5 3 3
257 155 158 166 142 158 201 58 60 68 92 32 1 70 261 327 262 233 215 211 218 227 233 261 292 312 329 341 345 350 350 352 353 353 357 2 6 6 1 1 4 6 8 2
95 56 57 119 88 81 132 75 50 56 76 4 149 117 272 200 213 255 205 212 214 219 220 244 269 281 299 326 342 350 349 352 354 355 359 0 2 2 3 4 4 5 6 8
27 204 67 98 103 62 76 56 342 350 10 233 140 50 247 237 222 218 202 198 203 208 214 230 248 258 277 312 331 340 346 353 355 356 358 2 1 1 1 4 4 4 5 8
181 293 165 344 99 159 129 135 145 283 299 285 317 244 255 241 157 188 187 184 195 201 212 225 236 242 260 283 310 329 343 354 355 355 356 357 1 1 3 3 6 6 5 8
150 257 8 54 123 97 158 112 164 103 25 2 251 288 265 108 172 169 178 184 198 202 213 224 232 234 252 279 295 325 340 349 349 354 356 357 359 1 5 3 359 2 4 6
170 38 274 166 115 38 142 151 75 23 104 295 291 282 248 231 224 210 211 207 207 206 211 219 224 228 245 250 269 307 329 338 345 353 356 359 360 0 1 0 1 2 3 4
133 121 254 13 205 174 108 106 54 113 111 168 304 276 209 206 198 199 216 213 210 211 213 217 222 226 240 239 254 283 311 326 337 351 355 357 359 355 358 359 0 358 359 360
192 139 189 222 315 67 165 172 147 118 224 63 142 273 190 213 208 204 209 211 211 215 213 215 221 224 231 235 247 265 293 314 328 347 352 354 355 350 351 350 354 356 356 356
186 313 4 319 358 345 221 189 111 103 92 198 140 261 200 236 226 209 198 202 207 209 210 212 217 221 226 227 231 244 269 290 311 332 346 347 345 346 345 347 348 346 347 350
132 151 182 198 208 132 197 184 178 139 129 182 226 278 208 225 218 205 202 205 208 208 212 214 218 218 222 222 224 230 248 266 286 308 328 340 346 344 349 345 343 344 348 349
131 209 185 250 236 186 218 189 183 201 192 185 242 210 240 208 207 213 206 203 205 209 211 215 218 216 219 221 223 225 234 251 272 288 315 333 339 346 351 343 345 348 347 348
347 222 157 284 145 205 254 230 205 219 236 265 297 278 208 234 224 210 206 203 209 213 215 214 216 217 218 219 222 225 231 244 262 280 300 323 338 340 344 345 350 356 354 354
157 144 111 265 352 313 290 231 190 189 210 189 205 232 168 200 212 214 205 207 214 215 215 212 214 215 215 218 220 224 233 246 257 274 294 317 330 334 343 347 353 359 0 3
139 118 101 237 2 279 248 129 177 205 228 215 260 214 195 204 214 228 219 212 215 216 215 213 213 213 212 215 216 221 227 238 251 265 284 304 319 330 341 344 352 356 359 4
91 120 75 151 201 291 279 209 161 173 279 209 222 215 201 197 254 254 225 219 219 215 212 211 211 214 214 216 216 219 225 233 243 256 275 293 308 317 333 338 345 349 353 356
69 73 121 107 158 237 243 212 193 173 297 238 203 188 164 150 213 250 222 215 207 206 208 206 207 212 215 215 218 220 222 228 234 245 262 278 290 298 306 319 329 337 344 348
89 26 176 181 241 287 244 151 155 108 242 331 204 202 176 192 209 216 198 203 206 206 199 201 209 216 217 216 220 224 225 228 229 238 251 265 274 281 291 302 313 322 330 335
168 156 191 97 114 279 155 118 180 241 315 275 210 210 208 218 224 223 214 196 198 202 201 204 210 213 214 217 222 225 230 226 231 236 244 255 266 274 281 290 300 309 315 321
235 188 184 184 211 257 193 226 233 270 306 304 268 247 231 231 228 224 220 204 202 205 207 208 212 214 217 220 223 226 228 232 235 238 243 250 257 268 276 283 290 297 305 312
241 172 217 105 246 246 260 254 259 265 267 269 281 273 249 242 232 227 222 213 208 208 210 212 213 217 221 223 225 227 227 234 238 241 244 253 259 267 276 284 292 297 302 306
196 153 184 260 284 283 283 291 308 289 276 263 259 263 262 250 242 232 227 222 218 216 214 215 218 222 226 226 229 228 228 234 239 243 246 251 259 268 273 281 290 298 303 304
195 188 180 227 248 240 291 312 322 324 324 321 270 256 254 253 250 242 233 228 224 220 218 219 221 225 226 228 230 229 231 235 239 243 247 252 258 264 272 279 284 294 303 303
Wind_Speed_850mb
8 10 1 7 9 5 5 5 6 4 7 9 13 12 11 29 25 28 26 23 18 11 10 12 14 21 25 19 19 22 26 31 36 39 42 43 43 39 39 38 40 41 44 46
11 0 4 8 5 3 4 3 6 1 5 10 3 15 10 20 23 36 32 27 22 13 11 11 13 20 19 17 18 19 24 30 35 38 40 45 37 40 41 41 42 43 42 37
9 3 6 4 3 3 2 5 3 4 2 3 11 8 3 3 7 21 27 24 22 14 10 9 12 16 13 14 17 18 24 29 34 35 37 35 32 37 40 43 46 48 38 38
5 1 4 3 3 6 4 1 3 3 7 5 6 9 4 5 10 12 24 29 24 15 11 8 12 12 9 13 15 17 22 28 31 33 36 34 39 42 42 44 46 46 37 38
2 4 3 3 2 3 3 3 4 3 5 6 3 5 9 2 11 17 34 33 26 16 13 9 10 8 8 10 11 16 21 27 27 30 34 28 31 35 38 40 43 45 42 38
3 2 3 4 5 5 7 6 10 7 5 4 0 6 9 9 11 4 22 38 27 19 16 11 10 7 6 9 12 16 20 24 25 27 30 27 28 33 40 42 45 47 43 44
2 1 1 2 6 4 8 9 7 7 8 8 3 3 16 8 11 9 28 41 29 23 18 13 11 9 7 8 10 14 18 21 22 24 25 26 24 30 36 40 44 48 45 45
7 7 5 3 2 7 4 8 8 6 4 10 0 10 7 1 6 4 19 31 26 25 21 17 12 10 8 10 8 12 16 19 20 22 23 23 24 25 30 35 39 44 40 39
8 4 1 5 3 2 6 3 6 11 3 4 6 13 4 3 6 12 23 28 30 27 23 17 14 13 11 10 8 11 14 16 18 19 20 21 23 22 27 30 33 38 37 35
5 0 1 3 5 10 2 9 5 6 1 8 10 11 10 11 18 15 23 37 35 29 27 23 19 16 14 11 8 9 11 13 14 16 19 21 22 21 24 28 32 34 36 32
7 6 0 1 9 14 3 2 11 9 5 8 4 13 13 15 17 25 45 44 41 36 31 25 21 19 15 13 10 8 9 11 13 15 16 19 21 19 23 26 29 30 33 33
4 8 6 4 3 1 3 7 10 9 7 3 6 13 6 11 11 29 39 41 39 36 32 27 24 22 18 17 11 9 8 10 11 12 14 17 19 19 21 24 26 29 30 32
10 1 4 4 3 6 7 8 8 11 7 13 10 12 4 8 11 26 34 39 39 39 39 34 32 28 22 20 15 11 9 9 9 9 12 16 19 20 22 26 27 28 29 29
10 6 11 12 9 8 7 9 10 10 8 10 14 16 12 16 17 27 39 42 41 43 43 38 35 31 26 24 20 14 12 10 10 9 10 14 18 21 23 27 28 29 30 30
7 8 7 11 13 9 10 10 19 20 13 15 9 20 13 16 23 51 53 47 48 49 50 48 41 35 30 28 23 20 17 13 11 11 12 14 17 21 23 26 27 28 29 30
3 5 6 9 1 11 12 19 23 22 8 24 6 27 19 20 22 31 53 58 60 59 56 51 44 38 36 31 28 23 20 16 13 13 12 14 16 19 21 24 27 27 28 30
8 9 6 9 7 12 15 18 24 12 11 19 20 25 12 10 21 39 53 67 68 64 58 55 50 42 37 34 30 24 21 19 16 15 14 13 15 18 20 22 24 25 26 29
12 8 4 6 7 5 13 4 10 23 15 32 15 13 17 14 19 24 42 57 62 61 59 56 49 44 41 37 35 28 25 22 19 16 14 14 15 17 17 20 22 24 26 28
6 9 3 5 6 15 9 7 13 15 17 38 43 21 25 16 6 32 41 49 45 53 53 51 45 42 42 40 36 33 30 26 22 17 16 16 16 16 16 19 21 23 26 29
9 11 8 4 7 11 11 3 12 9 12 7 45 20 27 27 3 11 21 50 48 47 50 51 48 45 47 43 42 39 34 31 24 20 18 18 18 17 17 18 22 25 28 31
5 5 10 5 6 17 14 12 16 3 13 6 29 34 50 15 27 6 12 38 45 48 54 54 52 50 45 45 44 42 39 32 24 24 22 22 21 19 19 19 22 24 26 30
16 15 8 6 3 17 21 15 13 9 9 7 12 30 48 50 23 20 14 29 48 53 58 60 56 51 48 49 47 44 43 29 31 28 26 25 24 22 21 20 21 23 25 26
7 14 11 19 14 5 40 26 28 24 19 14 15 16 27 35 40 29 23 30 44 50 57 59 56 50 51 52 48 47 36 39 35 34 30 28 27 25 25 24 23 24 26 26
9 10 6 3 11 27 49 53 62 62 45 35 22 20 25 32 34 38 34 34 43 50 57 58 57 55 54 53 51 45 42 42 40 37 34 32 30 28 27 29 28 27 27 29
6 18 11 11 24 50 59 40 31 39 52 64 57 40 32 32 36 39 42 41 43 47 53 59 60 56 52 50 50 47 47 45 42 40 38 36 34 32 31 31 30 31 29 32
17 12 9 11 21 10 28 23 42 40 50 43 45 62 52 40 38 39 44 43 44 48 51 57 61 58 51 51 50 50 50 48 44 43 40 39 38 36 34 33 31 32 33 31
Wind_Direction_850mb
28 64 262 203 172 152 130 187 240 222 167 156 217 270 222 201 200 199 200 206 218 248 293 305 323 336 337 339 341 346 352 354 352 354 356 358 1 1 0 3 358 350 347 349
25 348 182 122 117 152 169 233 265 339 135 176 175 256 255 189 214 208 206 209 218 239 281 295 317 333 338 346 345 347 352 350 353 357 356 355 359 1 7 6 2 356 354 359
151 166 147 131 79 84 163 203 239 247 36 209 330 294 297 216 194 200 217 221 219 238 271 281 310 326 337 344 347 352 353 350 354 355 354 356 1 6 7 7 5 2 2 6
118 107 168 129 111 121 315 92 95 97 50 277 26 288 288 248 233 215 209 204 217 231 253 272 303 322 335 346 349 351 350 351 354 353 355 360 4 5 5 2 3 5 3 3
257 155 158 166 142 158 201 58 60 68 92 32 1 70 261 327 262 233 215 211 218 227 233 261 292 312 329 341 345 350 350 352 353 353 357 2 6 6 1 1 4 6 8 2
95 56 57 119 88 81 132 75 50 56 76 4 149 117 272 200 213 255 205 212 214 219 220 244 269 281 299 326 342 350 349 352 354 355 359 0 2 2 3 4 4 5 6 8
27 204 67 98 103 62 76 56 342 350 10 233 140 50 247 237 222 218 202 198 203 208 214 230 248 258 277 312 331 340 346 353 355 356 358 2 1 1 1 4 4 4 5 8
181 293 165 344 99 159 129 135 145 283 299 285 317 244 255 241 157 188 187 184 195 201 212 225 236 242 260 283 310 329 343 354 355 355 356 357 1 1 3 3 6 6 5 8
150 257 8 54 123 97 158 112 164 103 25 2 251 288 265 108 172 169 178 184 198 202 213 224 232 234 252 279 295 325 340 349 349 354 356 357 359 1 5 3 359 2 4 6
170 38 274 166 115 38 142 151 75 23 104 295 291 282 248 231 224 210 211 207 207 206 211 219 224 228 245 250 269 307 329 338 345 353 356 359 360 0 1 0 1 2 3 4
133 121 254 13 205 174 108 106 54 113 111 168 304 276 209 206 198 199 216 213 210 211 213 217 222 226 240 239 254 283 311 326 337 351 355 357 359 355 358 359 0 358 359 360
192 139 189 222 315 67 165 172 147 118 224 63 142 273 190 213 208 204 209 211 211 215 213 215 221 224 231 235 247 265 293 314 328 347 352 354 355 350 351 350 354 356 356 356
186 313 4 319 358 345 221 189 111 103 92 198 140 261 200 236 226 209 198 202 207 209 210 212 217 221 226 227 231 244 269 290 311 332 346 347 345 346 345 347 348 346 347 350
132 151 182 198 208 132 197 184 178 139 129 182 226 278 208 225 218 205 202 205 208 208 212 214 218 218 222 222 224 230 248 266 286 308 328 340 346 344 349 345 343 344 348 349
131 209 185 250 236 186 218 189 183 201 192 185 242 210 240 208 207 213 206 203 205 209 211 215 218 216 219 221 223 225 234 251 272 288 315 333 339 346 351 343 345 348 347 348
347 222 157 284 145 205 254 230 205 219 236 265 297 278 208 234 224 210 206 203 209 213 215 214 216 217 218 219 222 225 231 244 262 280 300 323 338 340 344 345 350 356 354 354
157 144 111 265 352 313 290 231 190 189 210 189 205 232 168 200 212 214 205 207 214 215 215 212 214 215 215 218 220 224 233 246 257 274 294 317 330 334 343 347 353 359 0 3
139 118 101 237 2 279 248 129 177 205 228 215 260 214 195 204 214 228 219 212 215 216 215 213 213 213 212 215 216 221 227 238 251 265 284 304 319 330 341 344 352 356 359 4
91 120 75 151 201 291 279 209 161 173 279 209 222 215 201 197 254 254 225 219 219 215 212 211 211 214 214 216 216 219 225 233 243 256 275 293 308 317 333 338 345 349 353 356
69 73 121 107 158 237 243 212 193 173 297 238 203 188 164 150 213 250 222 215 207 206 208 206 207 212 215 215 218 220 222 228 234 245 262 278 290 298 306 319 329 337 344 348
89 26 176 181 241 287 244 151 155 108 242 331 204 202 176 192 209 216 198 203 206 206 199 201 209 216 217 216 220 224 225 228 229 238 251 265 274 281 291 302 313 322 330 335
168 156 191 97 114 279 155 118 180 241 315 275 210 210 208 218 224 223 214 196 198 202 201 204 210 213 214 217 222 225 230 226 231 236 244 255 266 274 281 290 300 309 315 321
235 188 184 184 211 257 193 226 233 270 306 304 268 247 231 231 228 224 220 204 202 205 207 208 212 214 217 220 223 226 228 232 235 238 243 250 257 268 276 283 290 297 305 312
241 172 217 105 246 246 260 254 259 265 267 269 281 273 249 242 232 227 222 213 208 208 210 212 213 217 221 223 225 227 227 234 238 241 244 253 259 267 276 284 292 297 302 306
196 153 184 260 284 283 283 291 308 289 276 263 259 263 262 250 242 232 227 222 218 216 214 215 218 222 226 226 229 228 228 234 239 243 246 251 259 268 273 281 290 298 303 304
195 188 180 227 248 240 291 312 322 324 324 321 270 256 254 253 250 242 233 228 224 220 218 219 221 225 226 228 230 229 231 235 239 243 247 252 258 264 272 279 284 294 303 303